Location: Dalton
(42.4737°N, 73.1662°W)
Time: 19:26:15
(UTC+00:00)

Envisat - Pass Details

Date: 23 September 2024
Orbit: 762 x 764 km, 98.3° (Epoch: 09 October)

Event Time Altitude Azimuth Distance (km) Brightness Sun altitude
Rises 09:05:09 0° 1° (N) 3,235 6.5 -18.4°
Reaches altitude 10° 09:07:46 10° 350° (N) 2,305 5.6 -17.9°
Maximum altitude 09:11:56 27° 294° (WNW) 1,453 4.0 -17.2°
Enters shadow 09:12:38 26° 281° (W) 1,482 4.0 -17.0°
